Regional Weather Roundup
Issued by NWS Little Rock, AR

Home | Current Version | Previous Version | Text Only | Print | Product List | Glossary Off
Versions: 1 2 3 4 5 6 7 8 9 10 11 12 13 14 15 16 17 18 19 20 21 22 23 24 25 26 27 28 29 30 31 32 33 34 35 36 37 38 39 40 41 42 43 44 45 46 47 48 49 50

000
ASUS44 KLZK 231812
RWRLZK

WEATHER ROUNDUP FOR ARKANSAS
NATIONAL WEATHER SERVICE LITTLE ROCK AR
100 PM CDT SUN JUL 23 2017

NOTE: "FAIR" INDICATES FEW OR NO CLOUDS BELOW 12,000 FEET WITH NO
SIGNIFICANT WEATHER AND/OR OBSTRUCTIONS TO VISIBILITY.

ARZ001-003-010-029-231900-
NORTHWEST ARKANSAS

CITY           SKY/WX    TMP DP  RH WIND       PRES   REMARKS
FAYETTEVILLE   SUNNY     92  70  48 SE8       29.94F HX  97
6HR MIN TEMP:  73; 6HR MAX TEMP:  92;

FORT SMITH     SUNNY     94  72  48 MISG      29.88F HX 102
6HR MIN TEMP:  78; 6HR MAX TEMP:  96;

HARRISON       SUNNY     90  69  50 NE7       29.96F HX  94
6HR MIN TEMP:  74; 6HR MAX TEMP:  91;

BENTONVILLE    MOSUNNY   90  68  48 NE9       29.97S HX  93
6HR MIN TEMP:  77; 6HR MAX TEMP:  91;

ROGERS         SUNNY     90  70  51 NE8       29.97R HX  95
6HR MIN TEMP:  75; 6HR MAX TEMP:  90;

SILOAM SPGS    MOSUNNY   93  66  40 E3        29.94R HX  96
6HR MIN TEMP:  75; 6HR MAX TEMP:  93;

HIGHFILL       SUNNY     95  67  39 NE12      29.96R HX  99
6HR MIN TEMP:  78; 6HR MAX TEMP:  95;

SPRINGDALE     MOSUNNY   91  66  43 E10       29.96S HX  94
$$

ARZ004-005-016-231900-
NORTH CENTRAL ARKANSAS

CITY           SKY/WX    TMP DP  RH WIND       PRES   REMARKS
BATESVILLE     MOSUNNY   91  75  59 W6        29.88F HX 102
6HR MIN TEMP:  79; 6HR MAX TEMP:  91;

FLIPPIN        SUNNY     93  64  38 NW9       29.90F HX  95
6HR MIN TEMP:  75; 6HR MAX TEMP:  93;

MTN HOME       SUNNY     91  67  44 VRB3      29.92F HX  94
6HR MIN TEMP:  75; 6HR MAX TEMP:  92;

$$

ARZ040-041-231900-
WEST CENTRAL ARKANSAS

CITY           SKY/WX    TMP DP  RH WIND       PRES   REMARKS
MENA           SUNNY     97  70  41 CALM      29.93F HX 103
MOUNT IDA      SUNNY     96  63  33 VRB3      29.90F HX  97
6HR MIN TEMP:  74; 6HR MAX TEMP:  97;

$$

ARZ009-017-025-026-028-231900-
NORTHEAST ARKANSAS

CITY           SKY/WX    TMP DP  RH WIND       PRES   REMARKS
JONESBORO      PTSUNNY   94  79  61 SW6       29.86F HX 111
6HR MIN TEMP:  80; 6HR MAX TEMP:  94;

WALNUT RIDGE   CLOUDY    90  75  62 CALM      29.87F HX 100
6HR MIN TEMP:  79; 6HR MAX TEMP:  91;

BLYTHEVILLE    CLOUDY    92  79  65 S7        29.87F HX 108
6HR MIN TEMP:  78; 6HR MAX TEMP:  92;

$$

ARZ022-023-033-042-044-231900-
CENTRAL ARKANSAS

CITY           SKY/WX    TMP DP  RH WIND       PRES   REMARKS
LITTLE ROCK    MOSUNNY   95  75  52 VRB3      29.88F HX 107
6HR MIN TEMP:  76; 6HR MAX TEMP:  95;

N LITTLE ROCK    N/A     92  76  60 CALM      29.86F HX 104
6HR MIN TEMP:  77; 6HR MAX TEMP:  92;

JACKSONVILLE   SUNNY     95  76  53 CALM      29.87F HX 108
6HR MIN TEMP:  78; 6HR MAX TEMP:  95;

CONWAY           N/A     95  75  52 NW7       29.86F HX 107
SEARCY         SUNNY     95  80  61 S7        29.88F HX 114
6HR MIN TEMP:  76; 6HR MAX TEMP:  96;

HOT SPRINGS    PTSUNNY   95  73  48 VRB5      29.90F HX 104
6HR MIN TEMP:  78; 6HR MAX TEMP:  95;

RUSSELLVILLE   SUNNY     93  74  53 VRB3      29.88F HX 103
6HR MIN TEMP:  74; 6HR MAX TEMP:  94;

CLINTON        FAIR      93  77  59 VRB5      29.89F HX 107
$$

ARZ036-231900-
EAST ARKANSAS

CITY           SKY/WX    TMP DP  RH WIND       PRES   REMARKS
WEST MEMPHIS   SUNNY     90  79  70 S9        29.87F HX 106
6HR MIN TEMP:  77; 6HR MAX TEMP:  90;

$$

ARZ050-053-066-070-073-231900-
SOUTHWEST ARKANSAS

CITY           SKY/WX    TMP DP  RH WIND       PRES   REMARKS
ARKADELPHIA    FAIR      93  78  61 CALM      29.90F HX 108
6HR MIN TEMP:  74; 6HR MAX TEMP:  93;

CAMDEN         SUNNY     93  73  52 NW3       29.89F HX 102
TEXARKANA      PTSUNNY   90  75  61 E3        29.91F HX 100
6HR MIN TEMP:  77; 6HR MAX TEMP:  92;

EL DORADO      PTSUNNY   91  76  61 W9        29.91F HX 103
6HR MIN TEMP:  74; 6HR MAX TEMP:  92;

DE QUEEN       SUNNY     94  77  57 SW5       29.89F HX 108
6HR MIN TEMP:  74; 6HR MAX TEMP:  94;

$$

ARZ056-057-069-231900-
SOUTHEAST ARKANSAS

CITY           SKY/WX    TMP DP  RH WIND       PRES   REMARKS
PINE BLUFF     MOSUNNY   92  76  59 VRB5      29.89F HX 104
6HR MIN TEMP:  74; 6HR MAX TEMP:  93;

STUTTGART      SUNNY     93  70  46 NW5       29.90F HX  99
6HR MIN TEMP:  75; 6HR MAX TEMP:  93;

MONTICELLO     PTSUNNY   90  77  65 CALM      29.90F HX 103
6HR MIN TEMP:  76; 6HR MAX TEMP:  90;


$$





USA.gov is the U.S. government's official web portal to all federal, state and local government web resources and services.